Zurück zum Katalog

STARLINK-31343

AktivKommunikationVLEO
NORAD 59093·PAYLOAD·🇺🇸 United States

Gestartet Feb 29, 2024 von Cape Canaveral Space Force Station

Loading…

Nächste Überflüge (nächste 24 Stunden)

TLE

AktuellSource: CelesTrak SupGP

Epoche: Sep 14, 2026, 21:41 UTC

1 59093C 24041V   26257.90395833 -.00021447  00000+0 -77679-3 0  2574
2 59093  43.0021 322.3793 0001578 272.0510 184.4430 15.27589921    19

Verfolge STARLINK-31343 in Echtzeit mit AllMySat

Download on the App Store